This demonstration page uses our WeatherBlox Daily Observations layout. Learn more.

Left ArrowRight Arrow

Hourly Observations for March 14, 2015

Temp ( °F °C ) Dew Point ( °F °C ) Humidity (%) Winds ( mph kmh ) Pressure ( in mb ) Visibility ( mi km ) Precip ( " mm )
12:16 am 00:16 Cloudy 50 10 N/A N/A N N/A 30.06 1018 1 1 N/A
12:35 am 00:35 Cloudy 50 10 N/A N/A N N/A 30.06 1018 1 1 N/A
12:56 am 00:56 Cloudy 50 10 N/A N/A N N/A 30.06 1018 1 1 N/A
1:16 am 01:16 Cloudy 50 10 N/A N/A N N/A 30.06 1018 1 1 N/A
1:35 am 01:35 Cloudy 48 9 N/A N/A N N/A 30.03 1017 1 1 N/A
1:56 am 01:56 Cloudy 50 10 N/A N/A S 3 6 30.03 1017 1 2 N/A
2:16 am 02:16 Cloudy 50 10 N/A N/A N N/A 30.03 1017 1 2 N/A
2:35 am 02:35 Cloudy 50 10 N/A N/A N N/A 30.03 1017 1 2 N/A
2:56 am 02:56 Cloudy 48 9 N/A N/A N N/A 30.03 1017 1 2 N/A
3:16 am 03:16 Cloudy 48 9 N/A N/A N N/A 30.03 1017 1 2 N/A
3:35 am 03:35 Cloudy 50 10 N/A N/A N N/A 30.03 1017 2 2 N/A
3:56 am 03:56 Cloudy 48 9 N/A N/A N N/A 30.00 1016 2 3 N/A
4:16 am 04:16 Cloudy 48 9 N/A N/A N N/A 30.00 1016 1 2 N/A
4:35 am 04:35 Cloudy 48 9 N/A N/A N N/A 30.00 1016 1 2 N/A
4:56 am 04:56 Cloudy 48 9 N/A N/A N N/A 30.00 1016 1 2 N/A
5:16 am 05:16 Cloudy 50 10 N/A N/A N N/A 30.00 1016 1 2 N/A
5:35 am 05:35 Cloudy 48 9 N/A N/A N N/A 30.00 1016 1 1 N/A
5:56 am 05:56 Cloudy 48 9 N/A N/A N N/A 30.00 1016 1 1 N/A
6:16 am 06:16 Cloudy 48 9 N/A N/A N N/A 30.00 1016 1 1 N/A
6:35 am 06:35 Cloudy 48 9 N/A N/A WSW 6 9 30.00 1016 1 1 N/A
6:56 am 06:56 Cloudy 48 9 N/A N/A WSW 5 7 30.00 1016 1 1 N/A
7:16 am 07:16 Cloudy 48 9 N/A N/A W 5 7 30.00 1016 1 1 N/A
7:35 am 07:35 Cloudy 48 9 N/A N/A W 3 6 30.00 1016 1 2 N/A
7:56 am 07:56 Cloudy 48 9 N/A N/A WNW 5 7 30.00 1016 1 1 N/A
8:16 am 08:16 Cloudy 50 10 N/A N/A WNW 8 13 30.03 1017 3 5 N/A
8:35 am 08:35 Mostly Cloudy 50 10 N/A N/A NW 6 9 30.03 1017 4 6 N/A
8:56 am 08:56 Cloudy 50 10 N/A N/A WNW 7 11 30.03 1017 5 8 N/A
9:15 am 09:15 Cloudy 50 10 N/A N/A NW 8 13 30.03 1017 4 6 N/A
9:35 am 09:35 Mostly Cloudy 50 10 N/A N/A NW 8 13 30.03 1017 7 11 N/A
9:56 am 09:56 Mostly Cloudy 50 10 N/A N/A NW 10 17 30.03 1017 5 8 N/A
10:15 am 10:15 Mostly Cloudy 50 10 N/A N/A NNW 10 17 30.03 1017 5 8 N/A
10:36 am 10:36 Partly Cloudy 48 9 N/A N/A N 8 13 30.03 1017 7 11 N/A
10:56 am 10:56 Sunny 50 10 50 10 100 100 NNW 9 15 30.03 1017 7 11 N/A
11:15 am 11:15 Sunny 50 10 48 9 94 94 N 13 20 30.06 1018 10 16 N/A
11:36 am 11:36 Sunny 50 10 39 4 67 67 NNW 12 19 30.06 1018 10 16 N/A
11:55 am 11:55 Sunny 50 10 41 5 71 71 NNW 10 17 30.06 1018 7 11 N/A
12:16 pm 12:16 Sunny 50 10 39 4 67 67 N 8 13 30.06 1018 10 16 N/A
12:36 pm 12:36 Sunny 52 11 39 4 62 62 N 10 17 30.06 1018 10 16 N/A
12:55 pm 12:55 Sunny 52 11 39 4 62 62 NNW 12 19 30.06 1018 10 16 N/A
1:16 pm 13:16 Sunny 54 12 39 4 58 58 NNW 12 19 30.03 1017 10 16 N/A
1:36 pm 13:36 Sunny 52 11 37 3 58 58 NNW 9 15 30.06 1018 10 16 N/A
1:56 pm 13:56 Sunny 54 12 37 3 54 54 NW 9 15 30.03 1017 10 16 N/A
2:16 pm 14:16 Sunny 54 12 36 2 51 51 WNW 7 11 30.00 1016 10 16 N/A
2:35 pm 14:35 Sunny 55 13 37 3 51 51 WNW 7 11 30.00 1016 10 16 N/A
2:56 pm 14:56 Sunny 55 13 37 3 51 51 NW 10 17 30.00 1016 10 16 N/A
3:16 pm 15:16 Sunny 57 14 37 3 48 48 WNW 12 19 30.00 1016 10 16 N/A
3:35 pm 15:35 Sunny 57 14 36 2 44 44 WNW 10 17 30.00 1016 10 16 N/A
3:56 pm 15:56 Sunny 57 14 36 2 44 44 NNW 16 26 30.00 1016 10 16 N/A
4:16 pm 16:16 Sunny 57 14 34 1 41 41 NNW 13 20 30.00 1016 10 16 N/A
4:35 pm 16:35 Sunny 57 14 34 1 41 41 NW 15 24 30.00 1016 10 16 N/A
4:56 pm 16:56 Sunny 55 13 32 undefined 41 41 NW 12 19 30.03 1017 10 16 N/A
5:15 pm 17:15 Sunny 55 13 32 undefined 41 41 NW 10 17 30.03 1017 10 16 N/A
5:36 pm 17:36 Sunny 55 13 28 -2 36 36 NNW 16 26 30.03 1017 10 16 N/A
5:56 pm 17:56 Sunny 57 14 28 -2 33 33 NW 13 20 30.03 1017 10 16 N/A
6:15 pm 18:15 Sunny 55 13 32 undefined 41 41 NW 9 15 30.03 1017 10 16 N/A
6:36 pm 18:36 Sunny 55 13 27 -3 33 33 NW 12 19 30.03 1017 10 16 N/A
6:55 pm 18:55 Sunny 54 12 30 -1 41 41 NW 10 17 30.03 1017 10 16 N/A
7:15 pm 19:15 Sunny 54 12 30 -1 41 41 NW 7 11 30.03 1017 10 16 N/A
7:36 pm 19:36 Sunny 52 11 32 undefined 47 47 WNW 7 11 30.09 1019 10 16 N/A
7:55 pm 19:55 Clear 52 11 32 undefined 47 47 NW 12 19 30.09 1019 10 16 N/A
8:16 pm 20:16 Clear 50 10 32 undefined 50 50 WNW 8 13 30.09 1019 10 16 N/A
8:36 pm 20:36 Clear 48 9 32 undefined 54 54 W 7 11 30.09 1019 10 16 N/A
8:55 pm 20:55 Clear 46 8 32 undefined 57 57 W 8 13 30.12 1020 10 16 N/A
9:16 pm 21:16 Clear 46 8 32 undefined 57 57 W 7 11 30.12 1020 10 16 N/A
9:36 pm 21:36 Clear 45 7 32 undefined 61 61 W 7 11 30.12 1020 10 16 N/A
9:55 pm 21:55 Clear 45 7 32 undefined 61 61 W 8 13 30.12 1020 10 16 N/A
10:16 pm 22:16 Clear 43 6 32 undefined 66 66 W 9 15 30.15 1021 10 16 N/A
10:36 pm 22:36 Clear 45 7 32 undefined 61 61 W 8 13 30.15 1021 10 16 N/A
10:55 pm 22:55 Clear 45 7 34 1 66 66 WNW 8 13 30.15 1021 10 16 N/A
11:16 pm 23:16 Clear 45 7 34 1 66 66 WNW 8 13 30.15 1021 10 16 N/A
11:36 pm 23:36 Clear 46 8 34 1 62 62 WNW 8 13 30.15 1021 10 16 N/A
11:55 pm 23:55 Clear 46 8 34 1 62 62 WNW 7 11 30.18 1022 10 16 N/A

Powered by AerisWeather